Wind_Speed
11 12 12 12 13 13 13 13 14 14 14 14 15 15 14 14 14 14 14 14 14 14 14 14 14 14 14 14 15 15 18 20 21 14 9 11 11 8 8 5 6 17 16 14 17 15 10 6 6 7 6 4 1 2 2 1 2 3 3 3 2 4 4 5 6 5 3 4 7 9 8 6 9 8 4 3 6 4 4 5 3 4 4 5 13 24 28 27
11 12 12 13 13 13 14 14 14 14 14 15 15 15 15 15 15 14 15 14 15 14 15 15 14 14 14 15 15 15 19 20 18 15 11 4 8 5 6 6 9 19 19 16 17 15 10 4 6 7 5 2 1 1 2 1 2 2 3 2 4 5 4 5 5 2 2 5 9 9 6 6 7 5 4 2 2 3 4 3 3 5 6 9 16 24 26 27
11 11 12 12 13 13 14 14 14 14 14 15 15 15 15 15 15 15 15 15 15 15 15 15 14 15 15 14 14 15 18 15 10 9 4 6 11 8 6 10 12 21 19 13 14 12 9 10 12 8 4 3 1 2 2 1 2 2 4 2 6 5 3 4 3 4 5 6 8 9 6 7 8 5 2 2 2 0 2 3 4 7 10 10 12 18 21 23
11 11 11 12 13 13 14 14 14 14 15 15 15 15 15 15 15 15 15 15 15 15 15 15 15 15 14 14 13 14 13 7 3 3 1 8 15 9 9 13 13 21 16 8 10 9 8 13 12 5 4 2 1 2 3 3 2 2 3 4 6 2 2 5 4 5 7 5 4 7 8 9 9 4 1 1 1 3 6 7 5 7 14 14 13 16 17 18
11 11 11 12 12 13 14 14 14 14 15 15 15 16 16 16 16 16 15 15 15 14 14 15 15 15 14 13 11 11 8 3 2 3 6 11 15 9 10 15 15 20 13 6 10 10 10 11 7 4 4 2 0 2 2 4 3 2 3 7 6 1 3 5 4 6 7 5 4 6 7 7 7 5 2 1 4 6 5 7 6 7 14 16 15 16 15 15
12 12 12 12 12 12 13 14 14 14 15 15 15 15 15 16 15 16 15 14 15 14 14 15 15 15 14 11 8 6 3 1 5 6 11 13 14 8 12 19 16 19 13 9 13 12 9 7 5 3 3 2 3 3 3 3 2 2 5 6 6 4 4 4 4 7 7 5 6 5 4 5 6 9 5 4 8 7 4 5 9 9 11 13 14 15 15 15
12 12 12 13 12 12 13 13 14 14 15 15 15 15 15 15 15 15 15 14 14 14 14 14 16 15 13 10 4 3 2 6 11 9 13 13 11 3 17 21 16 18 13 12 13 8 6 7 5 4 4 3 3 4 3 1 1 3 5 6 5 4 5 6 6 8 7 6 8 4 4 6 7 8 4 4 9 5 2 2 10 11 10 11 11 12 13 11
13 13 13 13 13 13 13 13 14 14 15 14 14 14 14 15 14 15 15 14 14 13 14 14 15 13 12 10 3 3 1 8 11 10 12 9 4 6 21 20 15 16 13 12 12 8 6 7 6 4 4 2 4 4 3 1 1 4 6 5 4 4 6 6 6 8 8 8 6 3 5 10 8 5 3 7 9 2 3 5 10 12 12 12 11 10 8 8
13 13 13 14 14 14 14 14 14 14 15 15 15 15 15 15 15 15 14 14 14 13 13 13 13 10 8 7 3 3 4 5 7 8 7 3 4 13 21 17 17 16 12 11 11 11 6 5 6 5 4 3 4 3 3 3 2 6 7 4 5 6 6 5 5 8 8 6 2 3 9 10 5 4 4 9 6 3 6 7 8 11 12 11 10 8 8 9
13 13 13 14 14 14 14 14 14 15 16 15 15 15 15 15 15 15 14 14 13 13 12 11 11 8 6 4 4 1 6 3 5 7 8 6 7 17 19 13 17 16 10 9 10 11 7 6 6 4 5 2 3 3 2 5 3 5 5 5 7 7 6 3 5 8 6 5 3 4 11 7 1 2 3 7 3 7 8 9 8 10 10 10 9 7 8 9
14 14 14 15 15 15 15 15 15 15 16 16 16 16 16 16 15 15 14 13 12 12 10 9 9 6 4 3 3 3 5 2 2 8 10 8 8 13 12 7 14 15 10 7 9 11 6 7 8 4 2 2 2 2 2 4 3 3 3 4 7 6 6 3 5 8 3 5 5 6 8 6 2 2 5 6 5 7 9 11 10 9 8 10 9 8 8 9
14 14 15 15 15 15 15 16 16 16 16 17 17 17 17 17 17 17 16 14 13 11 8 7 6 2 3 2 5 9 6 2 2 3 3 1 1 3 5 5 10 13 11 6 6 11 8 7 9 4 2 2 1 1 3 3 1 2 2 3 7 7 6 5 5 5 2 4 4 6 4 7 1 6 7 4 7 6 8 11 10 8 8 9 9 8 8 9
15 15 16 16 16 16 16 16 16 17 17 17 18 18 18 18 19 19 17 15 12 9 6 5 4 0 2 1 8 12 10 9 10 10 12 13 13 11 9 9 9 11 13 8 3 7 10 8 6 4 2 3 1 2 0 0 1 2 0 1 5 7 6 6 2 2 0 4 4 6 4 7 7 9 7 3 8 9 7 10 9 8 9 8 8 8 8 8
15 16 16 16 16 16 17 17 17 17 17 18 18 18 19 20 20 19 16 14 11 7 4 3 2 3 2 5 13 15 13 14 17 20 21 19 15 10 8 10 11 11 13 12 4 3 10 10 2 2 1 2 1 3 4 4 3 2 2 1 3 2 5 8 4 1 1 3 4 7 3 6 10 10 5 5 8 10 9 10 9 9 9 8 8 9 8 6
15 16 17 17 17 17 17 17 18 18 18 19 19 20 21 21 19 17 14 10 5 3 3 3 4 3 1 8 13 10 7 10 14 18 19 18 15 9 9 11 12 13 12 12 7 4 6 10 2 2 3 2 2 3 4 4 3 2 1 3 3 1 4 9 6 2 2 5 3 6 2 5 9 8 4 6 6 8 9 9 10 10 10 9 9 8 7 5
15 16 17 17 17 17 18 18 18 18 19 19 19 21 21 18 14 11 8 3 3 4 6 4 4 3 0 5 5 2 3 6 9 9 8 15 17 10 8 9 8 10 9 6 6 3 3 5 1 2 1 2 1 1 2 3 4 3 1 2 3 1 3 6 5 2 1 3 4 1 2 4 7 5 2 4 6 7 8 9 10 10 10 9 9 8 6 5
15 16 17 17 18 18 18 18 19 18 19 19 20 21 17 11 9 6 3 6 6 5 6 2 2 3 3 6 4 4 5 4 5 5 3 10 17 12 6 6 5 6 7 3 4 4 1 2 1 1 1 1 2 2 1 2 4 3 2 0 3 3 2 3 4 5 4 3 4 3 1 5 9 5 1 4 7 7 8 10 10 9 9 8 8 8 7 7
16 17 17 17 17 17 18 18 18 18 19 19 20 19 10 6 7 4 8 10 7 5 3 0 1 1 4 4 3 3 4 6 8 10 9 7 13 14 6 4 6 7 5 2 2 3 0 1 1 1 2 1 3 4 3 4 3 2 0 1 2 3 3 3 3 4 6 6 5 5 3 7 11 8 3 6 7 9 10 10 9 8 9 7 7 8 7 8
17 17 17 17 17 18 18 18 18 18 19 20 17 11 4 6 5 5 8 8 5 3 1 2 3 2 3 4 4 5 9 11 11 11 7 5 10 12 5 4 6 6 4 2 0 2 2 1 3 1 2 2 4 5 6 7 6 6 4 3 3 4 5 5 4 5 3 4 6 5 6 7 9 10 5 7 8 10 9 7 7 7 9 7 7 8 8 9
17 17 17 17 18 18 18 18 17 18 19 18 14 6 4 3 3 2 0 2 4 5 4 5 7 5 8 6 3 7 12 9 4 3 3 5 10 9 3 2 4 4 3 3 2 2 4 3 2 4 5 5 7 7 7 6 4 4 2 2 4 5 6 3 3 7 3 1 7 7 6 7 9 11 7 7 8 9 8 7 7 8 8 7 9 11 9 8
17 17 17 17 18 18 18 18 17 19 18 12 9 5 2 1 2 2 3 4 8 11 10 11 12 11 13 11 3 5 8 5 3 3 5 5 10 9 1 2 4 1 2 4 3 0 4 5 6 6 8 7 6 6 7 5 2 1 2 3 4 5 6 4 4 7 4 4 6 5 3 8 10 10 7 5 8 10 11 11 10 11 10 7 10 12 10 7
17 17 17 17 18 18 18 17 18 19 12 4 6 3 2 1 1 2 1 5 9 11 14 14 11 12 19 18 12 3 3 3 8 7 7 7 7 6 3 3 5 4 2 3 3 0 1 3 7 7 8 6 5 5 6 4 3 2 2 2 5 4 4 6 5 4 1 3 5 5 4 8 10 9 7 7 10 11 13 15 13 13 12 8 11 13 10 9
17 17 18 18 18 19 18 19 18 11 3 4 6 2 2 1 3 2 2 3 7 6 9 10 8 10 14 12 9 8 4 5 7 6 8 11 5 5 5 5 6 4 3 4 5 3 2 5 7 7 7 6 4 4 7 4 1 2 3 2 4 2 1 4 5 4 2 2 5 6 5 7 7 7 6 5 6 7 8 9 9 13 15 14 15 14 13 14
17 17 17 18 19 19 18 18 11 1 3 11 11 3 1 6 6 1 3 2 5 4 6 9 7 8 8 4 10 13 4 6 6 5 10 14 4 3 6 5 5 4 3 6 7 5 6 5 3 6 6 7 4 3 6 4 2 3 5 6 4 2 4 7 4 5 6 4 3 2 4 5 5 6 6 5 5 7 4 4 6 10 13 12 12 12 12 14
17 17 18 19 19 19 18 12 2 2 12 13 4 1 4 10 8 3 3 2 4 6 4 5 4 5 5 5 13 13 2 3 7 6 11 15 8 4 4 3 4 5 7 6 6 4 8 5 5 6 3 5 5 3 4 6 3 4 5 9 8 7 8 9 3 5 5 5 2 1 4 5 5 5 6 6 6 6 3 6 10 11 10 10 11 11 11 10
17 17 18 18 18 20 14 4 2 11 15 4 3 2 9 13 6 5 4 4 3 5 3 1 1 4 5 5 7 7 3 4 9 9 10 14 13 6 3 2 1 4 6 5 4 2 4 3 6 6 5 5 5 4 5 7 4 3 6 9 11 9 8 8 2 2 0 3 3 3 3 5 5 4 5 6 5 7 5 5 9 10 11 12 12 11 11 10
17 17 17 17 17 18 9 3 10 13 5 2 1 8 12 12 1 7 2 5 3 4 1 0 0 3 4 5 7 6 3 4 2 7 10 13 11 4 4 4 1 2 4 4 1 3 2 4 5 5 5 5 4 4 6 8 6 4 6 8 9 8 8 6 3 3 3 3 4 4 4 3 5 3 5 4 3 5 5 5 7 9 11 12 10 9 9 9
17 16 16 16 15 13 8 9 11 7 2 3 7 11 14 9 4 7 3 4 3 2 2 1 1 3 1 4 7 4 3 2 2 2 7 11 8 3 4 7 6 5 5 6 4 4 3 6 7 7 5 4 4 5 7 9 5 6 5 7 7 7 7 5 5 4 2 2 5 5 2 2 5 5 4 4 2 4 6 7 8 10 11 9 8 8 8 8
17 16 15 16 15 13 10 8 8 5 5 8 9 12 13 5 4 4 4 1 3 2 2 1 1 0 3 2 5 4 3 2 1 1 3 8 6 3 4 7 6 6 5 5 6 4 2 6 8 8 5 5 7 6 9 11 7 4 5 6 3 3 3 3 4 3 1 1 5 7 2 2 5 5 3 2 1 5 6 6 6 8 8 8 8 7 8 8
18 17 15 16 16 13 7 9 11 7 6 9 12 13 9 1 4 4 2 3 3 2 2 2 1 2 2 2 4 6 4 4 2 2 3 2 1 3 2 2 5 4 1 1 3 4 2 1 4 5 5 7 6 5 8 13 9 2 5 4 4 4 3 3 2 3 2 3 7 7 3 3 3 5 3 1 2 4 5 5 6 7 8 9 8 7 9 9
18 18 16 15 13 9 5 6 6 2 4 11 14 10 3 3 4 4 2 4 2 3 4 4 2 3 4 1 4 4 4 4 2 3 4 2 2 3 2 3 3 3 1 3 3 3 4 1 1 3 5 5 4 3 5 7 6 2 3 3 3 2 3 4 4 3 2 5 7 4 3 5 3 4 3 3 5 5 6 7 8 8 10 9 8 8 9 8
20 19 18 16 14 11 9 5 1 3 8 12 10 4 4 3 1 2 3 4 2 2 4 3 3 6 8 4 3 4 3 2 2 4 5 3 4 4 3 3 4 2 2 4 2 4 3 3 4 4 4 5 5 2 3 2 2 4 3 4 3 2 2 2 3 0 2 7 5 2 3 4 4 5 4 7 8 7 8 9 7 7 8 8 6 5 5 5
22 21 18 15 14 16 13 6 5 9 11 8 4 4 6 3 2 4 3 3 0 2 3 3 6 8 8 5 3 3 2 2 2 3 2 3 5 5 2 2 6 5 1 3 2 1 3 5 3 2 3 4 7 4 2 1 3 6 5 5 4 2 2 1 3 1 3 6 4 1 2 1 4 3 3 7 8 9 8 6 4 3 3 2 2 4 5 7
22 18 14 11 12 15 13 7 6 7 6 3 3 5 5 2 3 3 2 2 3 3 3 4 7 8 4 2 4 3 1 1 0 4 2 3 4 4 3 2 4 5 3 2 2 3 2 4 3 5 2 3 7 7 6 4 4 5 4 5 5 4 4 3 4 3 4 4 3 3 1 2 2 2 3 5 5 7 5 2 4 4 4 6 7 7 8 8
18 13 11 9 9 9 9 10 8 4 1 2 6 5 4 3 3 1 1 3 2 4 6 6 4 4 4 3 4 4 1 1 2 4 3 3 4 5 4 4 4 4 4 3 2 2 3 4 7 4 1 4 5 5 4 6 3 2 2 4 2 5 5 2 3 4 2 1 2 2 1 3 3 4 5 3 5 7 7 7 9 10 10 10 8 7 8 7
15 9 6 5 4 3 3 9 9 6 2 5 6 2 3 3 2 2 1 2 1 3 6 6 3 3 4 4 3 6 3 0 2 2 1 2 3 4 3 4 5 5 5 4 3 1 2 4 7 4 2 4 6 4 4 5 4 1 3 3 4 4 7 4 2 1 4 1 2 1 2 3 2 3 5 3 6 8 7 9 10 11 11 11 9 7 7 5
14 7 1 1 1 1 4 9 11 7 3 6 4 2 3 3 2 3 1 1 2 2 2 3 2 1 2 3 3 5 5 2 2 1 1 1 2 3 3 2 3 7 7 4 2 3 3 3 6 2 4 6 3 4 1 1 5 4 3 5 2 2 4 4 2 3 4 2 3 2 1 3 2 1 4 4 6 7 7 8 9 9 8 8 8 9 6 3
12 6 2 3 2 5 8 11 10 6 5 5 2 2 2 2 2 3 1 2 1 1 3 1 3 1 2 2 3 5 4 2 3 1 1 1 1 3 2 1 3 6 7 5 2 2 3 2 7 3 4 6 3 4 2 4 1 4 4 4 3 2 1 1 2 1 1 2 3 3 2 2 2 2 3 5 5 6 7 7 9 9 7 5 7 10 7 4
7 2 2 3 2 8 9 9 5 4 5 3 1 2 2 2 3 3 2 2 1 1 1 2 2 1 2 2 3 4 3 1 1 0 2 1 2 2 2 2 2 3 5 8 5 1 2 0 5 4 3 3 5 3 1 3 2 2 3 2 2 2 4 2 2 3 3 3 2 2 3 2 4 3 4 6 4 4 6 6 8 9 8 6 6 9 7 4
2 1 2 3 4 10 8 4 3 4 3 2 2 2 2 2 3 4 3 1 0 1 2 3 2 2 3 3 3 3 2 2 3 1 1 1 1 2 2 2 2 0 1 5 5 1 2 2 3 5 4 2 2 1 2 4 2 2 2 2 0 2 2 2 1 2 3 4 3 1 1 4 4 2 4 6 5 2 2 4 6 7 8 7 5 7 7 5
1 3 2 3 6 11 6 3 3 3 2 1 2 2 2 2 2 4 4 3 3 3 3 3 3 3 3 4 3 2 2 1 2 2 1 1 1 1 2 1 2 2 2 5 3 1 2 2 3 2 4 2 4 4 2 3 4 4 4 4 4 3 4 3 0 1 2 3 4 4 2 5 4 1 3 3 2 3 2 3 5 6 7 5 4 5 7 5
2 3 3 1 10 10 4 3 1 1 2 1 2 2 2 2 2 3 3 2 3 3 2 2 3 4 4 4 4 3 2 2 1 1 1 2 2 2 3 3 1 1 3 3 1 3 3 3 2 1 2 3 7 7 2 1 2 3 2 3 3 3 5 5 3 3 2 2 2 3 1 5 4 0 0 1 2 2 3 3 6 6 5 4 2 4 7 5
3 2 2 4 12 6 4 2 2 3 1 2 2 2 2 2 2 2 3 2 2 2 1 1 3 3 4 4 3 3 2 2 2 2 2 2 1 2 4 3 1 3 3 1 2 1 2 3 3 1 4 4 6 6 3 2 3 3 3 2 2 1 3 5 5 4 3 3 2 3 0 4 3 1 2 3 4 4 4 5 7 6 4 5 5 5 7 6
3 1 1 5 11 3 3 1 2 2 3 3 3 3 3 1 2 2 2 2 2 1 0 2 3 3 3 2 2 3 2 1 1 0 1 1 0 2 4 2 2 2 0 2 2 1 0 1 3 3 3 4 5 5 5 4 3 2 2 4 3 2 4 4 2 3 3 4 4 4 3 4 2 2 4 5 5 6 7 8 8 7 7 7 6 7 8 8
2 1 1 1 5 2 1 3 3 1 3 3 3 4 4 2 3 3 4 4 3 1 1 3 3 3 2 1 1 3 2 1 1 3 4 2 1 3 5 5 1 2 1 1 2 2 2 2 3 4 3 2 1 2 3 2 2 2 2 5 5 3 3 3 3 3 2 3 3 4 3 3 1 4 5 6 6 7 9 10 9 8 8 8 7 7 8 8
3 1 1 3 2 3 1 1 4 3 1 1 1 3 2 2 4 3 3 3 3 2 2 3 2 2 2 3 2 2 3 2 1 4 4 4 3 2 5 6 4 4 4 6 7 4 3 2 2 5 5 5 5 5 5 1 2 2 4 6 6 4 2 3 4 2 4 3 2 1 4 3 4 6 6 6 7 9 9 9 9 8 8 9 8 8 8 8
3 1 2 1 2 2 2 2 3 2 1 2 1 2 2 3 4 2 1 1 2 2 1 1 2 2 2 3 2 1 2 3 4 4 2 4 3 3 5 4 5 7 5 5 6 3 5 3 2 5 4 0 2 3 3 2 4 2 3 6 7 7 5 4 5 3 5 6 1 3 4 6 5 5 6 6 7 9 9 9 8 7 8 9 8 8 10 9
1 1 2 2 0 0 1 1 0 1 1 1 1 1 2 3 3 2 2 2 2 2 1 2 4 4 4 3 1 1 3 3 4 3 2 3 3 4 6 3 5 8 5 3 4 3 5 2 1 3 5 5 5 4 3 4 5 4 6 7 8 8 6 5 3 1 4 5 4 6 7 5 3 5 6 6 8 10 9 9 8 8 8 9 9 9 10 9
2 2 0 1 1 2 2 2 1 2 2 0 1 2 1 3 4 2 2 2 4 4 2 2 6 7 6 4 2 2 3 2 2 2 2 4 3 2 3 3 3 5 5 4 3 3 4 2 1 3 4 6 7 6 5 5 4 5 8 8 8 7 7 7 4 2 4 6 6 8 9 6 5 5 7 7 8 9 9 8 9 9 9 9 9 9 9 9
2 2 0 2 3 0 1 2 2 3 3 2 2 2 1 2 4 4 2 1 2 4 3 2 7 8 6 4 3 4 1 2 2 2 1 3 4 2 1 1 2 4 4 3 2 2 3 2 1 2 4 4 6 6 6 5 5 6 8 10 10 8 7 6 5 4 5 7 8 9 9 5 4 5 8 7 6 9 11 10 10 9 7 8 9 9 10 10
2 2 2 4 3 3 3 2 2 4 2 3 1 2 2 2 3 3 3 1 2 2 4 4 8 7 3 3 5 5 2 2 4 4 3 3 3 3 2 2 2 4 4 3 2 3 3 2 0 3 3 1 5 6 6 5 5 6 8 10 10 7 4 4 3 3 1 5 10 9 5 3 3 5 7 8 9 12 13 11 9 7 7 8 9 10 11 11
2 2 2 4 3 3 2 2 3 3 1 1 2 2 2 3 5 2 1 3 2 1 2 3 4 4 3 3 4 3 4 5 6 5 3 5 6 5 4 6 5 4 1 3 2 1 3 3 1 2 3 1 4 5 5 3 3 2 4 6 6 4 2 3 4 6 5 1 6 5 4 5 5 5 7 9 11 12 11 9 8 8 8 9 10 11 11 11
Wind_Direction
352 352 350 350 349 348 348 347 346 345 345 344 343 344 343 344 344 344 344 342 342 337 332 329 327 326 324 323 323 323 323 316 310 299 267 282 304 292 253 262 183 169 153 141 149 140 126 123 132 132 127 113 51 148 166 215 91 66 91 119 193 212 208 182 185 192 215 297 313 325 349 344 318 333 336 11 23 21 15 8 15 13 36 103 128 138 144 148
353 352 351 351 349 348 347 347 346 345 345 343 343 342 342 343 342 343 342 342 341 338 336 332 329 329 326 326 325 325 321 312 303 279 262 315 348 321 227 204 178 172 157 146 156 147 134 151 141 123 106 101 350 106 164 232 117 112 113 142 226 208 210 190 188 228 277 294 306 314 339 342 309 319 330 305 319 352 10 360 75 81 92 111 129 139 146 150
353 353 352 351 349 348 348 347 346 345 345 344 342 341 341 341 341 341 341 340 339 338 337 334 332 329 328 329 327 326 318 312 305 271 252 20 358 338 199 179 177 178 167 156 165 159 150 159 149 128 90 105 175 128 160 219 165 175 114 171 240 198 216 237 225 250 259 276 304 310 332 341 305 294 323 253 232 282 257 222 141 138 144 136 139 144 149 153
351 352 353 352 350 349 347 347 346 345 344 343 343 342 340 339 340 339 338 339 336 337 336 335 334 330 331 332 329 327 320 322 303 259 12 350 348 348 187 171 171 179 171 157 172 168 141 141 140 116 95 107 302 124 164 222 188 185 139 204 236 154 242 268 255 250 263 274 290 308 327 323 302 299 52 100 275 266 240 216 199 177 159 150 151 154 157 158
350 350 352 352 350 349 347 347 345 345 344 344 343 342 339 338 338 336 336 335 333 334 334 334 334 333 335 336 337 331 330 11 289 293 351 339 345 345 179 158 160 176 169 150 159 147 127 129 120 72 88 109 133 118 214 226 155 164 232 241 249 244 278 273 274 269 270 283 299 309 317 305 302 313 296 213 253 249 240 216 200 183 166 159 158 160 163 163
348 348 349 349 349 348 346 346 344 344 344 343 342 340 338 336 335 333 332 333 332 333 334 334 335 336 337 341 345 339 349 294 289 312 331 327 336 337 164 152 153 167 166 148 144 137 120 110 108 106 97 98 153 165 236 236 148 195 264 266 254 234 252 271 281 280 281 306 303 288 299 305 316 309 277 220 237 238 267 220 165 166 172 159 158 162 167 170
346 346 346 346 347 346 344 344 342 343 342 340 339 337 336 334 334 332 330 332 331 331 334 334 336 338 341 347 346 7 68 257 286 316 322 319 333 354 156 156 154 162 163 146 139 140 120 108 125 137 108 99 162 193 226 255 95 201 256 277 259 221 221 249 260 276 289 281 268 272 332 302 286 294 293 233 247 248 300 180 143 152 160 156 162 164 167 163
346 345 344 345 345 344 343 342 341 341 338 336 335 335 334 333 333 331 329 329 329 331 333 333 337 341 343 351 3 354 295 256 297 326 322 320 349 145 158 162 165 167 165 157 151 144 122 127 159 145 115 184 173 179 204 109 36 215 241 276 271 248 233 251 267 276 283 266 261 304 299 276 256 252 276 262 257 241 120 132 135 150 156 163 166 155 148 127
344 344 343 343 342 342 342 341 341 338 335 335 334 334 333 332 330 329 327 326 327 329 331 335 336 342 347 353 43 346 267 261 333 353 352 9 120 156 162 166 173 173 165 168 160 150 148 160 185 169 152 196 171 175 192 163 250 226 224 258 260 269 271 277 279 271 277 270 285 326 282 280 267 216 260 267 246 146 130 127 140 157 158 162 155 135 119 114
342 341 341 340 339 340 340 340 339 336 335 334 333 332 331 329 328 326 324 321 323 323 327 335 331 340 350 349 69 340 273 305 17 37 53 79 128 160 166 168 179 178 165 172 170 162 165 175 182 162 149 150 162 175 151 167 208 208 207 249 251 266 282 275 274 273 286 284 246 255 273 290 329 180 266 273 199 135 129 128 154 163 157 154 133 110 107 104
340 340 339 337 338 339 339 339 337 336 334 333 331 330 328 326 327 326 321 316 315 314 319 327 328 346 11 27 110 227 273 330 60 54 65 88 107 153 170 180 186 186 173 172 192 184 169 174 165 121 171 176 149 176 188 198 198 208 226 282 275 288 294 252 258 271 279 283 227 194 263 303 49 196 244 240 160 140 139 143 163 158 153 149 120 100 101 94
339 339 337 336 337 337 338 338 337 336 333 332 330 328 327 327 330 327 317 311 309 305 306 316 321 4 45 44 208 239 264 248 242 13 42 124 74 199 226 238 204 203 197 181 209 207 196 186 162 132 220 164 112 293 213 216 224 264 257 291 294 330 323 267 249 259 182 256 216 148 288 312 228 225 252 224 145 136 139 151 164 154 152 145 119 105 105 115
337 337 337 336 336 337 337 336 336 335 332 330 327 326 326 328 330 323 310 304 300 291 289 301 300 164 65 215 240 260 268 257 265 279 270 267 277 276 263 245 230 228 222 209 208 217 213 209 169 166 178 114 193 281 189 356 359 284 256 163 313 349 323 285 279 336 110 238 181 139 279 291 257 255 272 239 148 136 142 162 167 158 158 145 123 115 121 139
335 336 336 336 336 336 336 336 335 334 331 329 327 326 328 331 328 316 304 294 284 271 271 279 216 138 120 246 270 288 281 263 262 261 258 259 263 270 256 234 229 229 230 224 228 304 224 212 101 114 203 111 198 307 347 357 9 312 292 260 357 2 284 300 304 354 328 265 146 139 235 266 274 283 266 219 164 148 158 172 173 167 165 152 131 126 138 154
333 334 335 336 335 335 335 335 335 333 331 329 327 330 332 331 324 312 301 285 266 230 202 185 177 136 37 278 284 297 273 252 258 259 254 247 239 241 239 222 220 222 226 227 228 323 219 197 76 71 246 305 66 9 342 348 2 19 307 299 348 164 265 308 304 173 237 291 82 124 226 270 276 288 242 196 169 159 166 176 182 175 166 153 138 136 149 154
332 333 333 334 333 334 334 334 334 332 331 329 328 333 333 331 329 321 306 255 160 168 168 166 190 159 357 286 298 319 251 251 270 280 255 232 225 221 215 199 201 210 212 222 215 237 191 170 144 143 209 309 111 85 5 357 342 1 53 264 301 274 285 319 315 336 231 286 4 78 232 286 282 295 281 195 173 171 176 187 191 177 165 153 139 145 158 152
332 332 332 332 332 332 333 333 333 331 331 330 331 334 333 345 0 1 48 115 134 158 150 131 187 185 264 275 287 290 279 281 290 310 289 232 222 206 168 154 147 159 167 147 167 198 203 164 211 161 53 28 139 115 58 301 293 327 18 294 266 256 263 307 299 325 23 50 354 345 208 256 273 292 316 211 185 174 189 198 197 178 161 151 137 151 163 160
329 330 328 328 329 330 332 332 331 332 332 330 333 335 341 42 44 62 104 111 113 117 124 342 172 201 273 270 277 285 311 319 307 302 293 256 215 197 166 117 120 114 112 82 126 149 145 263 84 52 348 73 131 119 152 225 207 174 111 93 290 284 244 244 253 300 360 17 345 341 302 259 271 285 264 222 199 187 203 202 196 177 157 151 139 155 169 167
326 327 325 326 328 330 331 331 332 334 333 332 337 347 41 85 69 93 111 112 103 102 198 233 177 191 265 261 265 296 320 316 300 285 264 217 189 185 162 102 110 103 97 70 182 164 147 63 66 125 237 180 178 165 176 200 159 148 167 167 220 273 261 230 230 268 321 346 312 293 271 261 272 281 256 218 207 200 211 203 191 173 155 152 147 166 180 176
324 325 324 325 327 329 330 331 333 335 333 335 347 18 84 61 39 32 102 168 198 214 224 208 194 236 283 276 277 318 323 318 291 265 219 175 158 152 127 83 81 77 125 150 189 201 133 142 201 202 190 173 197 195 174 174 138 134 172 206 224 246 270 256 236 258 211 209 282 254 249 264 266 272 255 211 206 207 209 202 194 176 161 159 163 179 186 180
324 325 324 325 326 328 330 331 334 333 331 340 5 37 114 57 48 324 285 255 236 223 235 232 209 229 257 254 269 348 345 330 284 267 247 208 145 139 186 118 103 123 217 159 159 76 105 168 224 205 180 174 184 180 155 147 123 122 210 272 275 242 263 276 244 257 197 156 264 267 286 277 266 270 263 199 194 208 203 198 195 178 169 164 171 184 182 169
324 324 323 324 326 328 329 332 334 330 328 11 32 29 198 167 99 255 248 290 264 215 223 237 223 241 250 251 256 244 65 314 290 282 222 194 153 167 205 127 142 200 221 105 124 101 86 217 226 196 180 159 115 119 128 134 151 147 157 259 276 256 285 293 267 274 151 147 260 299 313 277 276 281 263 204 195 213 207 199 191 173 168 170 179 185 175 166
323 323 324 325 327 329 330 333 332 330 359 19 345 300 197 352 330 284 159 292 284 216 211 225 216 238 248 256 233 180 151 214 256 280 182 164 166 179 163 151 167 163 128 144 165 168 200 246 221 179 158 141 113 115 119 109 131 164 165 211 262 268 344 287 290 324 323 240 253 286 300 279 297 314 289 248 230 253 238 204 182 171 177 182 185 185 177 173
322 324 325 325 328 329 332 335 335 23 354 321 306 253 149 346 345 27 141 271 288 270 224 208 199 225 245 254 169 165 187 198 202 254 176 157 143 152 164 167 147 145 187 184 170 180 223 235 164 124 136 157 178 157 130 145 268 247 206 210 240 243 208 233 277 340 327 311 241 269 327 301 318 339 317 312 298 287 264 167 158 182 190 185 186 188 184 180
323 325 325 328 330 330 336 344 26 17 326 314 285 118 3 342 346 128 133 354 290 288 269 207 202 227 219 159 162 168 177 221 212 214 168 161 158 137 172 166 128 184 207 167 150 203 245 230 131 114 130 159 179 205 178 178 222 286 234 211 214 217 228 241 283 14 359 334 291 39 15 298 309 341 320 329 329 304 264 172 175 186 186 182 188 192 188 181
324 324 326 329 330 335 345 4 347 331 323 304 150 350 332 334 343 156 132 31 302 286 308 185 180 211 199 154 165 153 95 262 225 188 168 174 171 142 147 170 118 198 188 146 147 215 249 198 153 155 155 149 168 235 224 170 161 278 240 205 205 212 234 251 250 81 82 267 290 48 95 264 308 349 322 327 330 313 295 206 190 185 185 190 193 188 181 173
323 324 326 327 332 344 352 306 318 324 314 162 277 312 323 334 13 163 116 28 306 268 181 334 85 177 197 177 170 145 150 272 225 173 188 181 170 134 151 172 128 185 160 119 180 237 180 150 155 155 144 149 168 241 223 157 138 246 229 180 184 202 224 233 180 167 230 263 315 17 120 225 293 295 292 319 339 321 298 230 204 196 195 196 193 183 176 168
321 323 323 322 328 333 314 292 306 300 239 314 315 311 326 341 142 155 76 52 278 278 95 324 191 163 142 168 182 178 213 248 48 221 197 169 165 119 162 193 176 177 163 135 190 238 159 161 175 159 140 169 195 207 185 154 163 246 212 166 172 186 197 188 155 189 250 350 309 306 121 196 275 271 297 344 351 300 270 236 220 210 203 197 189 176 164 160
320 321 319 319 318 314 299 272 263 263 287 312 319 321 328 342 135 106 61 128 262 356 60 21 158 239 28 111 220 275 312 328 355 280 143 158 185 124 163 199 165 165 180 166 198 227 192 187 179 153 152 203 217 202 165 165 204 232 161 152 132 105 119 128 138 164 84 33 260 260 201 199 277 282 302 9 323 268 261 250 234 221 211 199 186 169 158 159
318 316 315 315 311 311 303 260 257 272 308 320 324 323 326 40 95 62 63 238 278 360 5 14 32 298 5 91 262 273 271 299 330 104 112 151 202 72 110 139 106 124 178 287 235 237 278 203 153 148 177 199 204 194 176 184 199 150 112 115 69 47 46 65 86 100 98 267 258 248 202 179 269 283 246 176 237 253 263 264 237 218 210 199 184 168 165 166
314 312 311 305 298 301 296 271 271 263 322 328 326 323 342 71 65 87 184 249 279 343 347 4 7 321 337 319 264 253 224 267 323 133 152 136 92 76 64 73 82 83 19 314 293 301 329 12 183 221 208 184 167 198 217 210 200 139 91 93 76 349 20 35 4 49 131 252 262 253 177 151 198 269 267 275 275 257 246 246 235 218 209 199 184 174 174 168
313 311 304 291 276 259 247 248 274 292 311 323 326 347 84 69 28 169 242 289 324 347 335 329 331 329 326 315 250 234 197 201 206 164 165 145 143 171 165 162 167 94 339 252 262 325 299 231 242 269 238 185 169 230 301 319 158 140 117 101 99 312 27 24 306 107 205 249 257 248 135 146 219 238 264 301 298 281 254 239 241 238 220 208 190 171 157 130
315 312 303 289 265 246 244 252 270 284 303 317 336 41 82 91 223 222 278 319 334 326 314 294 315 314 311 331 326 271 212 197 199 162 149 129 149 193 213 173 164 143 170 214 188 305 293 297 278 247 276 200 167 190 262 277 156 153 149 142 146 131 85 283 269 259 260 257 263 275 143 200 274 248 274 304 300 291 274 243 241 265 248 248 34 58 75 77
318 316 305 288 264 253 255 254 250 268 299 342 56 64 90 139 230 231 294 284 261 317 327 305 314 315 312 342 337 336 48 314 181 130 127 110 137 198 235 248 176 144 125 155 166 175 193 311 250 189 244 183 172 200 203 163 149 169 167 140 147 157 149 201 221 210 257 266 289 311 156 171 244 276 298 301 309 322 334 20 45 37 35 40 38 37 58 60
324 321 302 283 269 271 258 234 227 232 261 58 65 75 130 198 250 195 241 269 289 329 319 312 324 345 340 312 317 345 32 296 18 104 135 147 167 193 196 213 200 140 123 162 219 178 154 253 253 233 205 159 186 220 158 117 127 204 142 106 157 182 153 152 191 173 180 255 301 303 235 196 217 287 307 329 3 4 20 43 52 55 54 59 56 36 47 59
333 332 299 271 267 300 239 200 192 185 156 78 70 92 184 212 220 150 199 277 307 314 320 331 12 46 343 318 324 339 335 143 44 71 145 174 198 201 193 211 196 164 154 164 208 180 127 261 277 310 296 204 201 206 159 153 182 169 130 169 214 174 126 121 202 88 80 136 263 300 288 300 326 307 302 349 23 19 31 52 66 73 70 74 81 63 46 58
338 348 349 314 329 92 141 158 157 153 110 77 94 189 222 222 183 170 232 319 277 298 14 5 330 31 357 324 302 319 337 4 18 54 184 272 247 194 194 214 178 188 191 167 206 201 146 259 282 299 269 266 221 151 101 142 145 125 178 204 189 86 90 111 162 10 50 185 266 339 316 306 348 260 299 356 26 22 35 64 71 69 70 77 88 89 78 84
327 336 12 11 75 137 135 137 138 125 81 71 93 233 224 202 182 187 254 339 296 347 67 168 266 354 37 325 278 296 330 340 338 13 167 255 264 182 182 199 180 212 212 175 191 236 141 266 289 251 230 293 348 92 27 341 68 141 175 165 105 119 191 101 136 144 110 204 281 328 315 266 199 220 325 356 17 24 33 62 66 59 60 63 80 85 83 93
315 337 10 360 138 149 137 130 122 79 67 80 191 244 219 222 249 237 249 339 359 60 70 220 232 341 336 278 250 289 316 255 250 350 151 175 239 206 167 182 192 254 221 170 167 230 116 166 287 273 240 315 358 47 253 289 344 59 112 101 61 131 166 165 144 156 160 172 243 313 329 281 224 240 319 319 325 27 46 52 57 64 65 53 69 79 69 67
305 81 356 325 161 154 141 117 65 55 71 153 195 217 239 249 269 262 245 256 240 208 223 222 225 293 295 282 258 271 287 217 184 175 189 189 238 240 231 204 175 120 134 139 142 127 71 116 245 284 323 349 338 325 225 204 171 99 120 162 141 82 132 160 80 93 130 145 175 177 296 272 248 257 301 297 298 333 65 76 71 74 67 43 39 71 74 67
25 88 334 318 157 156 134 59 37 66 95 209 209 228 276 290 296 285 257 223 211 226 220 209 227 242 257 286 280 254 280 261 175 163 217 227 176 219 269 281 176 174 91 83 95 145 124 144 191 285 342 345 250 256 227 195 184 164 164 180 173 134 124 129 263 288 107 122 164 158 206 267 268 272 283 280 296 320 335 107 102 86 77 56 20 58 76 72
71 97 313 278 157 156 97 47 345 67 125 212 238 232 278 306 288 283 279 250 214 224 235 222 228 228 228 249 255 245 269 276 191 158 203 203 167 192 281 332 30 130 114 109 197 190 136 111 112 250 262 243 256 259 222 154 164 144 143 155 143 126 121 131 189 218 112 101 151 120 138 267 276 318 161 115 89 46 7 48 86 83 88 105 91 70 73 65
109 113 332 148 163 154 54 44 313 4 177 247 277 250 273 290 262 289 303 295 237 218 246 246 226 224 227 233 245 250 247 218 186 189 203 195 183 251 289 305 54 60 64 112 245 214 103 78 71 320 295 301 297 298 335 42 71 61 24 50 93 144 136 142 174 173 134 159 155 85 120 263 285 40 111 112 91 75 43 42 66 69 60 73 78 68 63 55
130 132 38 156 181 187 47 171 274 332 268 308 348 307 303 274 223 261 264 269 271 210 234 254 245 249 246 230 229 256 265 222 170 317 200 157 206 310 323 318 134 91 7 214 197 192 206 112 98 71 3 343 336 337 344 356 31 58 360 350 357 54 93 114 137 85 109 187 155 128 215 261 285 85 107 112 95 74 58 52 56 56 53 51 51 51 45 36
98 88 7 202 193 161 104 182 159 174 269 344 354 307 318 305 251 232 230 260 269 216 240 264 257 259 271 329 305 289 315 241 218 10 13 6 331 335 348 347 54 122 183 196 101 97 144 153 121 115 134 182 211 260 260 287 342 12 360 354 358 31 88 138 130 89 152 203 117 127 199 246 178 110 91 95 94 77 64 57 50 48 54 51 44 49 48 38
102 106 322 335 11 77 95 192 113 123 226 49 357 300 308 306 294 256 213 241 258 237 249 273 297 294 303 13 358 312 345 323 334 50 17 326 326 332 337 350 29 77 83 63 50 72 108 63 73 118 143 183 196 226 239 204 58 2 341 350 350 335 330 108 103 128 184 151 64 206 199 162 139 118 95 89 82 72 61 54 50 45 51 53 46 49 56 51
101 115 159 175 347 27 22 7 70 105 205 136 85 322 286 288 311 309 258 244 262 275 264 275 18 26 329 344 351 288 334 346 15 50 358 312 332 318 317 354 31 21 38 52 26 59 103 52 37 94 85 143 218 261 281 83 84 54 1 353 349 339 352 81 109 164 153 124 113 234 172 135 124 107 103 104 86 74 64 57 58 54 56 60 53 49 54 51
94 146 158 150 182 82 50 357 171 129 115 156 148 349 314 315 341 344 308 316 326 340 5 350 3 13 330 302 233 303 345 20 30 21 358 354 350 321 328 3 32 15 28 51 16 66 109 76 9 92 58 28 21 4 24 90 102 72 44 21 3 356 17 79 120 191 119 130 176 167 135 113 70 47 59 72 79 84 79 72 69 61 56 58 55 52 51 44
79 118 304 18 114 174 198 265 268 73 63 339 318 349 330 332 345 324 271 332 349 345 45 8 325 335 336 316 146 87 358 59 61 334 358 9 321 287 353 354 358 16 45 63 33 73 102 70 33 98 68 34 17 10 31 76 103 66 39 25 17 18 37 68 80 58 82 106 126 117 101 74 27 27 43 55 75 88 81 71 69 64 60 62 60 57 53 45
105 142 223 45 60 350 308 335 28 63 32 351 342 317 276 319 328 310 283 88 16 329 4 9 314 319 337 343 75 94 92 129 138 213 126 35 327 325 25 284 303 360 29 59 33 36 82 114 219 85 72 22 2 4 12 44 92 76 40 20 15 18 29 46 61 60 71 91 98 97 93 71 27 34 48 51 65 75 70 66 67 62 58 67 68 61 58 53
106 140 129 101 58 345 347 360 56 84 25 356 344 281 303 299 289 300 301 230 170 307 338 329 312 321 359 20 66 100 180 186 184 203 146 125 265 292 318 290 320 343 2 52 24 15 68 123 161 73 93 344 351 359 347 9 77 73 37 15 1 1 20 25 17 5 7 130 121 113 115 109 72 60 60 55 59 67 69 66 64 54 47 60 68 63 57 53
76 66 65 100 81 353 352 4 42 78 47 301 266 274 294 290 292 315 337 293 247 237 320 307 310 336 350 356 58 113 223 233 227 228 173 175 220 242 267 275 285 288 235 105 66 37 100 123 114 86 122 241 338 340 326 359 64 42 360 353 327 313 11 24 359 350 340 132 132 129 137 129 116 96 78 65 62 64 62 59 60 59 56 57 61 61 57 53
Height
793 793 792 791 790 790 789 788 787 786 786 785 784 783 782 781 780 779 778 777 776 775 774 773 773 772 771 770 769 768 767 765 762 763 761 751 747 748 748 749 750 751 753 754 756 757 760 763 763 764 765 767 769 769 769 769 769 773 779 786 786 783 780 776 773 771 768 764 760 759 759 760 758 753 748 747 750 754 754 753 752 749 746 746 746 747 750 753
792 792 791 790 789 789 788 787 786 785 785 784 784 783 782 781 780 779 778 777 776 775 774 773 772 771 770 769 768 768 766 763 761 759 753 747 747 747 746 748 749 751 752 754 755 756 759 762 763 765 766 768 770 770 771 770 770 775 783 788 781 776 774 770 768 767 767 764 761 760 760 759 758 756 751 752 756 755 757 757 755 754 751 749 748 749 751 753
791 791 790 789 789 788 787 786 785 785 784 783 783 782 782 781 780 779 778 777 776 775 774 773 772 771 770 769 768 767 765 763 759 752 747 746 746 745 745 747 748 750 752 754 755 756 758 760 762 765 767 770 771 771 772 771 771 775 781 785 776 770 770 768 766 765 764 763 762 761 759 759 756 754 752 754 757 756 759 759 757 757 754 752 751 751 752 754
790 789 789 788 787 787 786 785 785 784 783 782 782 781 781 780 780 779 778 777 776 775 774 773 772 770 769 768 768 766 765 761 753 747 746 746 745 744 744 746 748 750 753 754 756 757 758 760 762 764 766 770 771 772 773 771 772 775 777 777 770 768 769 765 764 763 761 761 763 761 760 759 753 751 752 755 759 758 755 753 753 753 751 751 751 751 753 754
790 789 788 787 787 786 786 785 784 783 783 782 781 781 780 780 780 779 778 777 776 775 774 773 771 770 769 768 768 766 765 761 750 745 746 746 745 744 744 746 748 751 753 754 755 757 758 760 763 764 767 770 772 772 774 771 770 775 774 769 767 768 769 764 762 762 760 760 762 762 762 758 753 752 752 754 759 755 749 746 747 749 747 746 747 749 752 754
790 789 788 787 786 786 785 785 784 783 782 782 781 780 780 780 779 778 778 776 776 774 773 773 771 770 769 767 767 766 766 759 748 746 746 745 745 743 745 747 749 751 753 754 755 757 759 761 764 766 768 770 773 773 773 770 768 775 772 765 765 767 768 764 761 759 758 761 762 762 760 757 756 755 750 751 752 747 744 743 742 745 746 745 746 748 751 753
790 789 788 786 786 785 784 784 784 783 782 782 781 780 779 779 778 778 777 776 775 774 773 772 771 770 768 767 767 766 767 758 746 746 746 745 745 744 746 748 749 751 753 754 755 757 759 762 765 767 769 770 773 772 771 769 768 773 771 764 763 765 765 762 760 759 759 761 760 759 759 757 758 756 751 748 744 741 742 741 740 743 745 747 749 750 752 756
790 789 788 786 785 784 784 783 783 783 782 781 780 779 779 778 778 777 776 775 774 773 773 772 771 770 768 768 767 766 765 755 746 746 745 744 745 744 746 748 750 752 753 754 755 757 759 762 764 765 769 769 770 770 769 770 771 772 769 764 762 762 761 760 760 759 758 757 756 757 757 755 755 755 752 746 741 741 742 741 742 743 745 748 751 754 757 761
790 789 788 787 785 784 783 782 782 782 781 780 779 778 777 777 777 776 776 775 774 773 772 772 771 770 770 769 769 766 757 749 747 746 745 744 745 745 747 748 751 752 753 755 755 756 758 761 762 762 766 767 768 768 767 771 772 767 764 763 761 760 759 759 759 757 756 755 754 756 754 751 752 753 751 743 741 742 742 743 744 745 746 749 753 756 759 762
790 788 787 786 785 784 783 782 781 780 780 779 778 777 777 776 776 775 775 774 773 773 772 772 771 770 770 769 771 766 752 747 748 746 745 745 745 746 748 749 751 752 753 755 755 755 756 758 759 759 762 765 766 767 767 768 767 762 762 762 760 760 759 759 758 755 755 753 752 755 753 750 751 753 751 743 742 743 743 746 747 747 750 752 755 758 760 764
789 788 787 785 784 783 782 781 780 779 778 778 777 776 776 775 774 774 774 773 773 772 772 772 771 770 770 770 772 764 749 747 748 746 747 747 747 748 749 751 752 753 754 754 755 755 755 756 757 759 762 764 764 767 766 763 762 760 761 762 759 759 759 759 757 755 755 752 749 752 751 750 753 753 747 742 743 744 745 748 748 750 752 753 756 760 763 766
788 787 786 785 783 782 781 780 778 778 777 776 776 775 774 773 773 772 772 772 771 771 771 772 771 770 770 772 768 756 747 748 748 747 748 747 749 750 750 751 751 752 753 754 756 755 756 756 756 759 761 762 765 767 764 760 761 760 761 764 761 758 758 757 755 753 754 751 745 750 754 752 752 748 742 742 745 745 747 749 750 752 753 754 757 762 765 766
787 786 785 784 783 781 780 779 778 777 776 775 774 774 773 772 772 771 770 770 769 770 770 771 771 770 771 767 755 747 747 748 747 747 747 746 748 748 749 750 751 752 752 753 755 755 756 756 756 758 759 761 765 764 761 760 761 761 762 765 765 765 762 756 755 754 753 752 744 750 764 758 747 743 742 745 744 745 750 750 751 753 753 756 759 763 765 765
787 785 784 783 782 781 779 778 777 775 774 774 773 772 771 771 770 768 768 768 768 769 770 771 770 770 770 760 746 744 746 746 746 744 744 745 746 747 747 748 749 750 752 753 754 755 755 756 756 758 758 760 762 761 762 764 764 764 764 767 772 775 767 756 755 756 752 750 744 750 767 761 744 742 745 745 743 744 750 751 751 753 754 756 760 763 765 765
786 785 783 782 781 780 779 777 776 774 773 772 771 771 769 769 767 766 766 765 766 768 768 770 769 770 769 756 743 743 743 743 743 740 741 743 744 745 745 746 748 749 751 753 754 755 755 756 758 760 760 759 760 764 768 769 767 768 770 773 779 780 772 759 753 755 753 749 747 752 765 760 745 743 745 745 745 745 749 751 750 752 754 756 760 763 764 765
786 784 783 782 780 779 778 776 775 773 772 770 770 769 768 767 766 765 764 764 766 767 769 770 769 770 766 750 742 742 742 741 740 738 739 740 741 743 743 745 747 749 751 753 754 755 755 757 758 760 760 760 764 769 773 774 773 776 777 777 778 778 776 766 754 754 754 751 750 754 762 759 747 745 748 747 747 748 750 751 749 751 754 755 759 762 763 765
785 783 782 781 780 779 777 775 774 773 771 770 768 768 767 766 765 765 764 765 766 767 769 769 770 771 759 743 741 742 741 740 739 739 739 739 740 742 743 745 747 749 751 753 754 755 756 758 759 761 762 765 768 770 777 782 780 780 780 778 779 777 777 773 760 754 754 754 755 756 759 758 747 744 749 748 747 750 752 751 749 750 753 754 758 761 761 763
784 783 782 781 779 778 777 775 774 772 770 769 767 766 766 765 766 766 766 766 767 769 770 769 771 767 751 740 742 741 739 740 739 739 738 738 739 741 743 744 746 748 751 754 754 755 758 759 761 764 766 768 770 772 779 783 779 778 779 778 779 778 777 777 769 758 755 757 759 760 760 756 748 744 749 749 748 750 749 748 748 750 753 754 757 760 760 761
784 783 782 780 779 777 776 774 772 771 769 767 766 766 765 766 767 767 767 767 767 765 763 764 764 756 744 741 741 739 738 739 738 737 737 737 738 741 743 743 745 748 752 756 757 757 758 762 766 768 769 770 771 771 773 775 773 774 777 778 779 778 775 773 770 761 758 761 761 760 759 755 749 745 746 747 747 748 747 746 748 751 753 754 757 758 758 759
784 782 781 779 778 777 775 773 771 770 768 766 766 765 765 767 767 767 768 766 762 757 753 756 756 749 743 740 739 738 738 737 737 737 736 736 737 741 743 744 746 749 753 756 759 757 758 765 769 768 769 769 768 767 767 770 772 772 774 776 777 778 773 769 767 760 757 763 761 755 756 755 749 744 744 746 747 748 748 748 749 750 751 753 755 755 755 757
783 782 780 779 777 776 773 772 770 769 767 766 765 765 766 768 767 767 766 759 753 751 751 749 749 747 740 736 737 739 739 738 736 736 737 736 737 741 744 746 750 755 756 756 757 757 759 767 768 765 765 762 763 766 767 770 772 772 773 774 776 778 773 767 765 759 756 764 760 753 757 755 747 745 744 745 747 747 744 745 748 748 750 751 751 753 754 756
782 781 779 778 776 774 772 770 769 767 767 766 766 767 767 767 767 767 766 759 748 746 747 744 746 745 735 733 737 740 744 744 737 733 735 736 738 742 744 747 752 755 757 757 759 762 765 767 764 761 761 761 765 768 769 771 772 773 775 776 776 775 772 767 762 758 758 763 757 753 759 754 747 747 745 744 743 739 736 736 740 744 748 750 749 750 753 755
782 780 779 777 775 773 770 769 767 766 766 766 767 768 766 766 766 764 766 762 749 741 742 741 744 741 732 732 736 739 745 745 739 732 732 735 738 741 743 747 751 754 756 758 760 766 769 764 759 759 759 761 766 769 770 772 773 775 775 777 776 774 774 771 763 759 758 760 757 756 759 755 749 747 743 745 744 738 735 734 736 739 741 742 743 744 748 751
780 779 778 775 773 771 769 767 766 766 766 766 766 765 765 765 764 763 763 761 750 740 736 735 736 735 730 730 733 736 739 738 736 731 728 733 737 739 741 745 751 755 755 755 758 764 764 758 755 759 761 761 764 768 771 772 773 774 773 774 774 772 773 770 765 762 758 757 756 757 759 753 750 750 746 747 747 740 738 738 738 740 738 738 741 743 745 747
779 778 776 774 772 769 767 766 765 766 766 765 764 763 764 763 762 763 762 761 753 740 733 732 733 730 726 728 730 731 735 734 729 725 724 727 732 737 740 742 747 754 755 755 760 762 758 754 754 758 761 762 763 765 768 770 772 773 769 767 768 767 766 766 767 769 766 761 757 756 762 757 752 756 755 752 751 744 740 740 739 739 739 740 742 743 745 747
778 777 775 773 771 767 766 766 766 766 765 764 763 762 763 762 761 761 762 765 756 738 731 732 732 727 723 728 729 729 735 731 720 721 723 723 725 731 739 742 743 748 752 754 758 758 754 751 752 755 758 762 765 764 764 766 772 774 764 757 761 763 764 767 769 771 769 765 759 758 767 765 753 756 762 759 756 750 744 742 740 739 739 738 739 740 743 747
777 776 774 772 770 768 768 767 767 766 763 762 762 762 762 760 761 759 761 768 757 735 730 733 731 726 723 727 727 729 734 726 717 720 720 721 723 725 736 744 743 745 747 753 759 755 750 751 752 755 757 762 765 764 762 764 769 768 756 751 757 762 764 767 769 772 767 763 762 759 763 765 756 757 764 759 755 754 749 745 743 740 738 737 738 740 742 746
776 774 773 772 770 770 770 768 768 765 762 761 761 761 760 759 760 759 764 768 749 728 727 730 727 723 723 727 726 725 726 721 721 723 717 719 723 724 735 740 739 742 741 749 759 752 746 749 751 752 757 762 760 756 757 761 762 756 749 752 754 756 760 763 766 770 768 766 765 760 761 766 758 755 763 760 755 755 750 748 746 741 740 739 740 741 743 746
775 773 772 771 769 769 768 768 767 763 760 760 760 759 758 759 758 760 770 765 740 726 726 726 725 725 727 731 730 726 724 721 722 723 718 721 722 723 733 735 735 741 740 743 751 747 742 743 744 748 754 755 750 748 751 755 755 748 748 753 753 756 760 762 766 765 768 772 766 757 759 763 759 754 760 760 756 755 750 747 746 742 741 741 740 742 743 746
773 772 771 770 768 767 767 766 763 760 760 759 759 758 756 758 759 767 775 761 740 733 729 726 729 731 732 734 733 729 728 724 721 722 722 722 722 722 728 731 733 741 743 743 746 744 741 740 741 743 745 743 742 746 748 747 746 745 749 753 755 760 760 761 767 764 770 774 760 754 757 760 761 755 753 755 754 754 750 746 744 741 740 739 739 741 742 744
771 770 769 768 768 767 766 763 759 758 760 759 758 757 756 759 766 775 771 751 742 740 733 733 735 733 734 737 734 728 727 726 722 724 726 725 727 728 730 735 738 744 749 748 747 746 744 743 742 736 734 736 739 744 746 745 745 746 750 752 757 764 763 766 770 768 777 774 755 758 765 762 761 755 752 756 755 753 750 745 743 741 740 738 737 739 741 743
768 767 766 766 766 765 764 760 758 759 759 759 759 756 757 765 773 773 760 745 746 747 742 741 739 736 736 735 733 728 724 724 722 724 727 727 731 732 733 737 741 749 757 754 750 749 745 742 740 734 731 733 737 744 749 749 751 752 754 757 763 770 772 775 776 775 780 769 755 762 766 760 758 755 757 760 755 753 749 743 741 741 741 740 739 741 743 746
765 763 762 762 762 761 759 758 759 759 758 759 759 756 761 770 770 765 758 751 752 750 746 744 741 739 737 732 730 726 723 723 721 723 725 727 732 735 734 734 735 742 752 757 755 752 748 743 739 737 733 728 733 743 747 748 753 755 754 757 764 774 780 782 783 784 778 762 757 763 760 756 755 754 760 760 753 750 746 742 740 741 743 744 746 749 750 751
762 760 759 758 758 756 756 758 759 759 759 758 757 759 765 769 766 763 762 759 754 750 747 747 745 739 734 731 729 726 727 726 722 723 727 730 736 739 737 736 735 736 743 754 756 753 754 748 737 734 732 727 729 734 733 738 748 752 749 749 755 761 768 773 772 771 768 760 760 762 758 758 756 753 756 755 751 748 744 743 742 743 747 750 754 757 756 756
759 758 756 755 755 754 755 756 758 758 759 757 759 764 766 764 765 766 765 761 756 754 750 747 746 741 734 733 731 727 728 729 727 726 729 733 736 737 737 735 736 736 740 751 755 752 755 748 731 727 729 726 726 724 724 733 745 749 747 747 750 745 746 762 769 766 767 765 765 764 763 764 760 754 753 751 750 750 747 747 749 750 752 754 758 761 760 762
757 755 754 754 753 754 754 754 757 758 758 758 761 766 765 762 764 766 763 760 759 758 755 747 743 743 742 738 735 731 727 727 730 730 731 734 733 733 734 731 732 733 734 743 750 751 753 745 730 727 727 722 723 722 721 728 737 746 748 743 744 740 737 754 771 776 774 768 769 773 768 763 760 755 753 751 751 753 752 752 754 754 753 755 758 761 764 766
756 754 754 754 753 754 754 754 757 757 758 760 761 765 768 765 763 763 760 759 759 758 758 753 746 745 749 747 741 736 729 728 730 731 733 736 732 731 731 727 728 728 726 732 741 744 747 742 730 727 725 719 720 722 721 723 727 738 744 736 738 744 742 747 760 771 775 768 768 774 771 765 761 756 755 757 757 757 757 756 757 756 754 755 756 758 765 768
756 755 754 754 754 754 755 755 757 757 758 762 764 768 772 767 762 762 760 758 759 758 759 759 751 746 750 752 746 738 733 733 734 732 733 736 733 729 728 726 726 726 723 725 733 738 743 743 733 728 728 722 720 723 726 727 726 727 730 729 734 744 746 750 757 763 770 772 770 773 775 771 763 759 761 764 763 760 759 757 757 758 759 759 757 758 763 766
756 755 755 755 755 755 756 756 757 758 759 763 766 767 769 767 761 760 759 758 759 759 759 759 754 749 749 750 746 740 735 736 737 735 734 736 733 727 726 727 726 726 724 723 730 736 740 745 739 731 730 727 723 726 730 731 728 727 730 732 735 740 743 748 754 754 759 770 774 772 772 767 763 766 768 767 765 762 760 760 760 760 762 762 760 758 762 765
756 756 756 757 756 757 758 757 758 760 762 767 769 766 766 766 760 758 757 757 758 758 757 757 755 753 750 746 744 741 737 735 736 737 735 734 733 728 726 725 724 727 726 724 729 734 738 746 744 734 730 731 732 735 737 736 731 730 733 736 737 741 744 746 753 757 755 761 772 773 768 763 764 768 768 766 765 762 760 761 763 762 763 765 763 759 762 766
756 756 758 757 757 758 758 758 762 766 767 770 771 769 766 763 760 758 756 756 756 754 753 754 753 754 752 747 744 741 737 735 735 737 735 733 734 732 728 724 724 725 725 725 729 732 736 744 745 738 734 736 737 738 739 739 737 732 729 732 736 739 742 745 755 763 759 757 766 767 760 760 766 766 764 765 764 762 760 759 761 762 763 767 767 763 763 766
756 758 759 757 758 759 759 762 769 772 770 768 768 767 765 761 760 760 755 754 755 752 751 752 751 751 751 747 744 741 737 735 736 737 735 734 734 732 729 726 725 724 724 728 732 731 733 740 743 743 743 741 739 736 736 737 739 736 732 736 740 736 734 739 747 755 760 763 768 766 758 760 766 765 762 764 763 763 763 760 761 764 765 768 770 766 765 768
757 759 759 758 759 759 762 766 770 771 768 767 767 765 764 762 761 760 757 755 755 752 752 751 749 747 746 744 742 740 737 734 734 734 734 733 732 731 729 726 725 727 727 729 732 730 733 742 745 745 744 740 734 732 734 736 737 738 740 745 746 739 735 737 742 746 753 761 763 761 761 764 765 764 763 764 763 763 765 764 764 767 769 770 770 768 768 770
758 760 760 760 760 760 764 768 768 769 767 767 767 764 763 763 761 760 759 756 753 752 752 749 746 745 743 742 741 738 736 735 734 733 733 734 731 729 729 726 725 729 729 729 729 728 734 745 748 749 753 751 744 739 736 736 738 743 749 750 749 747 742 741 747 747 748 759 760 753 759 767 766 765 764 764 765 766 768 769 769 771 773 774 773 772 772 774
758 761 761 761 761 762 766 767 767 768 769 770 770 767 765 764 760 758 759 757 754 753 752 749 745 744 744 744 741 738 736 736 735 734 734 735 731 728 729 727 726 729 729 728 726 726 737 748 746 747 755 758 756 752 748 745 746 749 752 752 753 752 744 739 743 742 744 762 765 753 759 770 768 766 767 766 768 770 771 774 776 777 779 778 778 777 778 780
757 760 762 762 762 763 767 769 768 768 769 771 770 768 768 766 761 758 758 757 755 753 752 749 746 745 746 745 742 740 740 738 735 737 741 740 734 731 730 728 727 728 728 727 728 730 743 755 753 748 752 754 754 756 757 754 752 753 754 755 758 759 751 741 740 740 746 760 766 763 767 771 768 769 770 769 771 774 778 780 782 783 782 781 783 783 784 786
757 760 763 763 763 764 766 768 769 768 770 771 769 768 769 768 764 759 756 755 755 754 752 750 749 749 749 747 743 742 743 741 738 743 748 745 739 735 732 729 728 728 727 729 732 734 742 754 759 758 760 762 761 761 761 758 760 766 765 763 764 763 752 738 736 747 751 752 759 768 769 766 768 771 771 771 775 781 786 788 787 787 785 784 787 788 789 790
759 761 765 764 763 765 765 767 768 768 769 771 769 768 769 768 766 761 758 756 754 754 752 750 750 752 754 754 749 744 744 743 743 748 750 748 746 744 736 730 729 730 729 732 736 737 743 754 761 762 764 766 765 764 763 762 768 777 777 772 771 769 758 746 751 763 757 748 754 765 766 770 778 780 779 780 784 788 792 792 791 792 790 790 792 793 793 794
760 762 765 765 764 766 767 768 767 765 766 769 768 768 769 768 766 764 763 759 756 756 755 753 752 753 756 757 752 749 750 747 747 751 753 752 752 748 741 735 733 732 731 734 740 743 747 758 763 761 763 766 766 766 765 765 767 774 780 779 775 773 769 764 768 772 763 756 761 767 773 785 791 790 790 791 791 792 794 795 795 796 796 797 798 798 798 797
759 760 764 764 764 768 768 768 767 765 766 769 769 769 770 768 765 765 764 761 759 758 757 756 755 754 756 755 750 750 753 751 749 751 754 757 755 748 745 741 737 736 734 737 743 742 746 759 765 761 762 767 769 768 766 765 766 769 776 782 778 774 773 770 771 771 767 767 773 775 780 792 797 796 797 796 795 795 797 799 801 802 802 802 803 802 802 801
760 761 762 761 765 771 770 769 771 769 768 771 771 768 768 767 766 766 762 760 760 759 757 758 758 756 756 755 751 752 753 752 750 748 749 755 757 754 752 748 743 741 739 741 746 744 746 760 766 761 762 769 773 771 767 764 762 762 772 784 784 779 778 778 779 779 774 771 773 774 778 791 800 801 801 801 800 800 803 805 806 806 806 805 806 806 805 805
760 761 762 761 766 775 774 771 774 771 770 773 773 770 768 767 767 766 761 758 758 758 759 760 759 757 755 752 752 754 754 751 751 749 748 753 757 756 754 751 748 746 743 744 750 752 752 758 762 760 762 771 776 773 768 763 759 764 778 791 790 783 781 783 786 789 784 775 773 773 780 793 801 802 804 807 807 808 809 810 810 810 810 809 809 809 809 810